#timestamp,LO_Frequency,Hit,StdDev 
1685228415.4,286047001.0,N
1685228435.3,286047001.2,N
1685228455.1,286046998.2,N
1685228475.8,286046998.8,N
1685228495.7,286046998.9,N
1685228515.5,286046998.6,N
1685228535.4,286046998.9,N
1685228555.2,286046998.9,N
1685228575.0,286046999.0,N
1685228575.9,286046999.0,N
1685228595.8,286046998.4,N
1685228615.6,286046998.6,N
1685228635.4,286047000.4,N
1685228655.3,286047000.7,N
1685228675.1,286047000.0,N
1685228695.9,286046999.8,N
1685228715.7,286046999.8,N
1685228735.5,286046999.8,N
1685228755.4,286046999.8,N
1685228775.2,286046999.7,N
1685228795.0,286047002.5,N
1685228795.9,286047002.5,N
1685228815.8,286046999.7,N
1685228835.6,286047002.8,N
1685228855.5,286047002.8,N
1685228875.3,286047001.8,N
1685228895.1,286047001.9,N
1685228915.9,286047002.1,N
1685228935.7,286047002.5,N
1685228955.5,286047002.6,N
1685228975.4,286047002.3,N
1685228995.2,286046999.8,N
1685229015.1,286046999.8,N
1685229016.0,286046999.8,N
1685229035.8,286047002.4,N
1685229055.6,286047002.2,N
1685229075.5,286047002.1,N
1685229095.3,286047002.6,N
1685229115.1,286047003.9,N
1685229135.9,286047001.4,N
1685229155.7,286047001.6,N
1685229175.6,286047001.3,N
1685229195.4,286047001.4,N
1685229215.2,286047001.6,N
1685229235.1,286047001.3,N
1685229236.0,286047001.3,N
1685229255.8,286047003.9,Y
1685229275.6,286047002.0,P
1685229295.5,286047001.5,P
1685229315.3,286047001.4,P
1685229335.2,286047003.8,Y
1685229355.9,286047002.5,P
1685229375.7,286047002.5,P
1685229395.6,286047001.9,P
1685229415.4,286047002.4,Y
1685229435.2,286047000.8,P
1685229455.1,286046998.4,N
1685229456.0,286046998.4,N
1685229475.8,286046998.6,N
1685229495.7,286046998.8,N
1685229515.5,286046999.3,N
1685229535.3,286046999.4,N
1685229555.2,286046998.5,N
1685229575.0,286046999.2,N
1685229575.9,286046999.2,N
1685229595.7,286046998.3,N
1685229615.6,286046996.5,Y
1685229635.4,286046999.0,P
1685229655.3,286046998.7,P
1685229675.1,286047001.2,P
1685229676.0,286047001.2,N
1685229695.8,286046998.4,N
1685229715.7,286047000.9,N
1685229735.5,286046998.5,N
1685229755.3,286047000.7,N
1685229775.2,286047000.7,N
1685229795.0,286046998.2,N
1685229795.9,286046998.2,N
1685229815.8,286046998.7,N
1685229835.6,286046998.2,N
1685229855.4,286046999.0,N
1685229875.3,286046999.3,N
1685229895.1,286047001.1,N
1685229915.8,286046998.3,N
1685229935.7,286047000.8,N
1685229955.5,286046998.6,N
1685229975.4,286046998.1,N
1685229995.2,286046998.5,N
1685230015.0,286046998.1,N
1685230015.9,286046998.1,N
1685230035.8,286046998.6,N
1685230055.6,286046998.3,N
1685230075.4,286046998.1,N
1685230095.3,286047000.6,N
1685230115.1,286047000.7,N
1685230135.9,286047000.7,N
1685230155.7,286047000.3,N
1685230175.5,286047000.9,N
1685230195.4,286047000.6,N
1685230215.2,286047000.3,N
1685230235.0,286047000.9,N
1685230235.9,286047000.9,N
1685230255.8,286047001.2,N
1685230275.6,286047001.2,N
1685230295.5,286047000.4,N
1685230315.3,286046998.1,N
1685230335.1,286047001.0,N
1685230355.9,286047000.9,N
1685230375.7,286047001.0,N
1685230395.6,286046998.1,N
1685230415.4,286047000.4,N
1685230435.2,286046999.8,N
1685230455.1,286046999.9,N
1685230456.0,286046999.9,N
1685230475.8,286046999.8,N
1685230495.6,286046999.7,N
1685230515.5,286047000.2,N
1685230535.3,286047000.3,N
1685230555.2,286047000.1,N
1685230575.9,286047002.3,N
1685230595.7,286047000.0,N
1685230615.6,286047002.1,N
1685230635.4,286047004.4,Y
1685230655.3,286047002.2,P
1685230675.1,286047002.0,N
1685230676.0,286047002.0,N
1685230695.8,286047002.4,Y
1685230715.7,286046998.3,P
1685230735.5,286047000.8,N
1685230755.4,286047001.0,N
1685230775.2,286047000.9,N
1685230795.0,286046998.3,N
1685230795.9,286046998.3,N
1685230815.8,286046998.8,N
1685230835.6,286046999.0,N
1685230855.4,286046998.6,N
1685230875.3,286047000.4,N
1685230895.1,286046998.5,N
1685230915.9,286047000.7,N
1685230935.7,286047000.5,N
1685230955.5,286046998.6,N
1685230975.4,286047000.2,N
1685230995.2,286047000.5,N
1685231015.1,286047000.7,N
1685231016.0,286047000.7,N
1685231035.8,286046998.6,N
1685231055.6,286047001.0,N
1685231075.5,286046998.2,N
1685231095.3,286046998.2,N
1685231115.1,286047001.0,N
1685231135.9,286047001.1,N
1685231155.7,286046998.6,N
1685231175.6,286046998.3,N
1685231195.4,286046998.9,N
1685231215.2,286046998.9,N
1685231235.1,286046999.6,N
1685231236.0,286046999.6,N
1685231255.8,286046999.3,N
1685231275.6,286046998.4,N
1685231295.5,286046996.9,N
1685231315.3,286046999.3,N
1685231335.1,286046996.9,N
1685231355.9,286046997.0,N
1685231375.7,286046996.9,N
1685231395.6,286046996.7,N
1685231415.4,286046996.5,N
1685231435.2,286046997.0,N
1685231455.1,286046997.2,N
1685231456.0,286046997.2,N
1685231475.8,286046996.8,N
1685231495.7,286046996.8,N
1685231515.5,286046996.8,N
1685231535.3,286046997.2,N
1685231555.2,286046996.9,N
1685231575.9,286046996.7,N
1685231595.7,286046996.7,N
1685231615.6,286046996.9,N
1685231635.4,286046996.7,N
1685231655.2,286046998.9,N
1685231675.1,286046999.3,N
1685231676.0,286046999.3,N
1685231695.8,286046996.5,Y
1685231715.7,286047000.2,P
1685231735.5,286047002.4,N
1685231755.3,286047002.4,N
1685231775.2,286047002.8,N
1685231795.0,286047001.9,N
1685231795.9,286047001.9,N
1685231815.7,286047002.3,N
1685231835.6,286047002.8,N
1685231855.4,286047002.4,N
1685231875.3,286047002.6,N
1685231895.1,286047002.6,N
1685231896.0,286047002.6,N
1685231915.8,286047002.8,N
1685231935.7,286046999.7,N
1685231955.5,286046999.9,N
1685231975.3,286047002.6,N
1685231995.2,286047002.8,N
